Theta_e
316 316 316 316 315 315 314 314 314 314 313 313 313 312 312 312 314 323 333 329 330 327 333 345 345 343 347 347 347 348 346 350 349 352 356 353 355 352 350 352 352 351 352 351 350
317 317 317 317 317 317 316 316 315 314 314 313 313 312 312 312 325 329 328 322 326 329 338 342 340 342 346 343 344 343 348 352 349 351 353 352 354 353 353 353 353 351 351 350 349
317 318 318 318 318 318 317 316 316 315 315 314 313 312 312 313 332 333 327 326 323 328 335 336 336 342 343 344 344 344 347 350 352 352 352 352 352 352 352 354 353 353 353 350 349
317 318 318 319 319 318 318 317 317 316 315 314 313 312 312 326 335 328 325 327 326 329 335 335 341 344 343 343 344 345 348 350 353 352 350 352 347 348 351 350 351 351 351 351 351
317 317 318 319 319 319 318 318 317 316 316 315 313 312 322 329 328 325 328 328 330 327 336 338 342 343 343 342 344 344 350 350 351 351 350 349 348 349 351 351 351 350 350 351 350
317 317 318 319 319 320 319 318 316 316 316 315 312 312 331 324 321 327 325 333 332 332 336 338 342 341 342 343 345 346 349 350 352 352 351 351 351 349 351 350 351 351 352 351 350
317 317 317 318 319 320 319 317 317 317 316 314 312 319 324 324 320 326 326 328 334 334 338 338 340 342 341 342 343 345 348 350 351 352 352 354 352 352 350 351 352 353 352 352 351
317 317 317 317 318 319 319 317 318 317 315 313 313 324 325 320 319 321 326 328 328 332 335 338 339 341 342 341 342 344 345 352 349 353 354 352 360 352 351 351 353 353 353 352 351
315 315 316 317 318 319 318 318 316 314 313 314 325 326 325 319 320 322 326 330 331 331 334 335 338 341 341 341 343 343 355 345 348 350 353 354 359 354 351 352 352 352 352 352 352
313 313 314 316 318 319 318 319 319 319 324 324 324 325 323 322 323 322 326 328 331 333 335 337 340 342 341 342 345 349 344 342 343 344 348 354 356 357 353 352 352 350 350 351 351
311 311 311 315 318 318 319 324 327 330 326 326 326 323 322 322 322 323 324 328 330 334 338 339 341 342 342 340 342 343 342 342 342 340 342 346 349 356 355 354 352 351 350 350 351
308 307 311 314 318 319 321 327 324 322 325 325 324 324 323 323 324 324 325 329 331 334 338 340 340 340 340 342 341 341 342 342 341 340 343 344 347 347 357 355 354 352 350 350 351
308 308 309 314 318 322 323 323 322 323 326 326 325 324 324 323 323 325 325 329 331 335 337 339 340 338 341 341 341 342 342 342 341 341 341 346 350 344 348 356 354 353 351 348 351
308 308 308 313 321 323 325 322 322 323 328 326 322 323 323 323 322 325 325 327 329 331 335 336 337 339 339 341 340 341 340 340 340 342 345 346 348 351 353 357 356 355 354 352 350
308 309 309 311 318 325 324 322 322 324 329 324 324 323 324 323 324 323 325 326 327 328 329 332 335 337 340 339 339 341 340 339 340 341 341 342 345 349 347 356 358 356 354 353 352
307 309 311 320 321 323 321 322 323 325 325 325 324 323 323 323 323 325 324 325 327 328 328 330 332 334 337 337 338 339 339 339 338 340 343 344 347 348 350 351 352 355 354 353 352
309 311 312 315 326 322 322 325 327 326 324 325 325 324 324 323 323 323 323 323 325 325 328 328 329 332 333 334 335 338 338 340 340 341 344 345 348 343 346 348 349 350 355 354 353
312 313 318 317 321 322 323 328 328 325 323 326 325 324 325 326 323 323 324 324 325 326 327 328 327 329 331 332 334 336 335 336 341 340 352 351 352 345 347 351 350 350 353 353 354
314 320 321 323 321 322 326 327 326 325 323 324 324 325 326 325 324 324 324 324 325 326 326 327 327 330 330 330 330 331 333 331 332 335 341 349 344 344 349 354 354 354 352 355 355
316 323 325 323 322 323 325 325 326 324 322 323 325 327 328 325 323 324 325 325 325 326 327 327 327 329 329 330 330 329 332 332 332 337 342 345 341 344 347 353 357 355 356 358 358
320 327 324 323 322 327 327 324 325 324 322 322 324 326 327 327 326 325 324 325 326 326 326 326 327 329 329 329 329 329 330 331 333 334 337 339 343 348 351 352 357 357 358 359 359
324 329 323 323 327 328 329 326 316 324 323 323 323 325 326 326 327 327 324 325 324 325 325 326 326 327 329 329 329 329 329 329 331 334 338 341 347 342 344 347 355 357 359 359 358
328 328 323 324 330 329 327 325 324 323 323 325 324 324 325 326 329 329 328 328 326 324 324 325 325 325 327 329 329 329 330 330 330 333 336 339 342 346 345 350 356 360 359 359 357
328 334 328 327 328 328 326 326 324 322 323 327 327 325 325 327 328 332 330 329 326 326 341 326 325 325 326 328 329 329 329 330 330 333 335 335 344 351 344 351 359 360 360 359 357
328 331 330 331 329 328 328 328 328 327 328 327 328 327 326 326 328 330 330 330 328 331 325 324 325 326 326 327 328 328 328 328 329 329 331 332 333 335 345 351 359 359 362 360 358
326 326 328 330 331 330 326 328 329 329 330 332 329 330 325 327 332 336 332 332 333 332 329 326 325 326 326 326 326 326 327 328 328 328 330 331 333 335 346 353 358 360 361 359 358
314 318 323 327 330 332 332 332 329 330 331 331 333 332 332 331 334 336 337 337 336 336 336 332 328 327 327 328 327 326 327 327 328 330 330 332 332 335 338 354 359 361 360 359 358
Wind_Speed
22 23 22 21 19 19 19 20 20 19 19 18 17 16 17 19 11 7 8 2 4 8 5 5 8 4 8 4 6 9 13 13 15 15 12 5 12 10 11 10 8 1 18 22 24
23 23 23 21 21 20 20 20 19 19 19 18 16 15 16 19 11 14 4 7 8 8 8 9 9 3 10 4 4 9 11 15 16 15 11 9 14 9 8 8 8 12 23 24 22
24 24 23 22 22 22 21 20 19 18 18 17 15 14 16 14 10 5 7 9 12 12 14 13 14 13 4 5 7 15 11 14 13 14 11 9 10 7 9 10 11 15 20 20 20
24 24 23 22 22 22 22 20 20 18 17 17 14 15 16 5 7 7 3 9 12 13 15 15 15 12 1 12 1 15 9 11 9 7 10 9 10 12 12 8 12 16 20 18 17
25 25 24 22 22 23 23 22 21 18 16 15 12 14 7 8 5 5 4 4 10 12 15 14 14 8 4 8 6 13 7 9 7 8 9 10 13 12 11 9 13 18 17 16 15
25 27 25 23 23 23 24 24 20 16 14 13 10 12 7 14 4 6 2 6 10 13 13 13 7 10 4 4 8 7 3 8 8 6 6 10 10 9 10 13 16 17 16 15 12
26 28 26 24 24 24 25 24 18 15 12 8 7 7 10 4 2 6 6 8 10 13 13 8 8 13 2 9 1 7 11 9 6 5 2 5 11 12 13 14 16 15 13 13 12
27 28 27 25 24 24 26 21 19 12 7 5 6 6 7 2 5 10 10 11 11 11 11 7 9 13 11 1 8 13 10 9 10 5 3 9 10 13 14 14 15 15 13 12 12
28 29 27 25 24 25 21 20 13 5 4 3 6 8 9 3 10 12 9 13 14 13 11 6 11 16 7 14 15 11 9 8 11 6 2 6 10 15 15 15 14 14 14 13 13
28 28 27 25 24 25 18 16 8 3 3 6 10 8 7 11 7 7 10 11 11 13 12 13 13 15 14 14 2 21 5 10 1 9 7 9 5 15 16 15 14 14 14 13 13
27 28 27 25 25 17 17 7 6 7 13 13 1 7 2 2 7 12 16 14 14 14 18 18 16 16 20 14 10 6 8 2 5 3 8 7 8 18 17 16 15 15 16 15 15
26 27 26 23 21 11 11 6 6 6 10 13 13 13 8 4 7 12 15 15 17 20 21 20 19 19 16 4 6 11 8 10 5 4 7 9 7 11 20 19 16 15 15 16 15
27 27 26 22 10 7 7 6 6 9 7 9 11 13 13 13 12 17 18 21 18 22 23 23 17 19 16 8 12 13 13 4 6 10 18 12 7 11 13 17 17 16 14 15 16
28 26 24 21 5 9 3 4 9 4 6 14 11 8 9 10 13 15 22 21 17 21 25 23 20 18 19 15 15 17 11 3 11 13 4 23 4 10 13 17 17 17 16 15 16
26 24 19 12 12 6 6 7 8 6 6 10 11 7 7 14 7 20 15 22 21 19 18 24 20 22 17 17 17 16 3 8 12 14 18 14 7 11 13 18 17 15 17 16 17
24 24 18 2 8 9 8 10 7 7 6 8 8 11 13 17 11 15 16 18 16 20 18 19 15 23 17 19 19 14 15 9 14 15 14 7 8 14 7 6 11 16 15 16 19
24 18 12 7 2 6 10 8 7 10 5 8 8 9 16 13 19 14 19 21 18 19 20 19 19 13 16 20 22 21 15 12 14 14 4 12 14 10 12 9 6 5 15 16 17
21 11 8 9 6 8 10 8 9 1 1 3 3 6 12 12 18 17 20 20 24 22 16 19 18 19 18 20 17 18 18 14 18 17 7 11 10 5 12 11 8 7 10 14 16
12 3 7 2 5 6 7 10 11 10 5 5 8 11 12 8 7 16 21 21 23 25 21 18 20 18 19 17 21 20 17 21 25 26 8 13 10 26 15 14 8 12 11 13 14
9 7 5 3 5 9 8 15 11 3 8 9 14 3 10 16 13 16 17 18 22 24 20 21 13 17 17 15 18 20 15 12 14 22 18 20 7 2 14 15 12 13 15 14 15
5 5 4 4 7 7 9 14 10 7 4 8 5 5 11 1 10 15 17 8 14 13 17 21 12 17 15 17 20 16 18 15 20 15 16 13 6 10 16 13 15 15 15 16 16
7 3 5 6 7 9 11 14 4 8 7 10 5 11 10 4 11 13 12 11 15 17 18 19 13 14 16 16 18 24 21 22 15 17 14 14 2 18 23 21 14 17 16 16 16
5 3 4 7 6 8 10 8 7 12 9 6 8 8 2 9 5 13 7 4 2 12 13 16 13 15 18 18 20 12 19 21 23 18 17 14 5 8 7 14 14 17 17 16 16
5 4 5 6 8 10 9 8 12 10 13 8 10 11 10 12 11 8 7 6 5 14 11 9 17 15 16 18 15 20 21 17 18 15 15 16 11 15 10 15 15 16 18 17 16
2 5 5 2 6 7 6 9 7 7 11 7 10 14 16 13 14 12 13 6 10 5 8 16 17 17 18 20 14 20 20 21 24 22 20 17 16 12 16 17 18 19 18 19 18
6 5 8 9 7 7 5 10 11 8 4 12 11 13 10 11 16 11 7 5 7 9 13 16 16 14 20 14 19 13 17 18 23 23 21 21 20 17 14 16 16 19 20 20 19
10 7 5 5 10 7 3 9 8 9 8 11 11 6 4 12 12 15 13 15 15 8 9 12 14 15 15 17 17 21 22 19 20 21 17 19 19 13 10 18 18 19 19 20 20
Wind_Direction
18 14 12 10 7 5 1 354 353 352 349 343 340 337 333 331 311 257 242 79 221 233 234 254 233 223 225 235 247 253 64 54 55 67 96 142 92 74 105 131 103 28 138 138 147
12 9 8 6 3 0 356 351 349 347 344 342 339 334 330 330 300 247 202 230 238 211 236 251 337 252 224 139 305 100 65 55 46 66 82 70 85 126 134 125 130 97 109 136 151
7 4 3 1 358 354 350 346 342 339 338 338 335 330 328 328 266 176 181 226 228 219 244 292 289 262 174 253 45 50 74 79 61 52 78 98 110 179 161 144 147 136 141 151 156
2 359 358 356 352 349 344 339 334 332 330 331 333 328 324 277 220 94 185 222 226 220 251 278 264 254 243 112 287 93 52 76 78 78 76 87 81 60 37 50 129 141 150 158 164
359 356 353 350 346 343 340 334 328 325 323 324 330 331 332 224 246 135 54 195 194 213 245 266 288 292 88 95 157 102 94 97 103 86 90 87 81 89 91 102 124 137 157 162 176
355 353 350 346 342 339 336 330 324 321 316 316 325 325 256 251 91 161 154 183 200 213 240 256 334 334 326 39 48 100 88 120 135 115 112 126 133 121 116 126 132 150 163 169 173
350 349 346 344 339 335 333 328 323 317 309 309 318 322 263 282 218 205 227 215 204 217 254 245 303 286 305 146 32 171 157 157 139 152 163 177 139 112 141 146 150 162 172 171 181
346 345 343 341 337 331 331 325 322 316 303 297 301 283 265 183 234 239 224 224 216 226 249 302 275 283 272 8 185 218 259 160 117 147 191 254 115 139 156 160 163 169 171 177 185
342 342 340 339 335 331 327 320 315 315 278 276 271 235 251 196 214 214 220 226 201 213 222 267 256 260 193 230 205 219 192 89 146 155 172 265 135 162 173 173 170 174 172 181 184
341 339 337 337 334 331 325 315 278 260 269 252 265 262 234 216 171 225 215 235 216 212 213 224 234 242 232 238 252 300 115 125 23 124 197 193 224 167 187 187 181 179 168 179 180
339 337 335 337 334 331 332 279 215 198 216 261 28 278 134 197 230 216 208 209 236 218 217 211 232 236 242 228 4 309 335 49 96 113 277 236 234 163 189 200 192 188 173 178 183
340 337 335 336 334 342 307 329 37 350 297 264 245 255 274 272 232 211 192 207 209 218 218 232 226 243 250 83 250 253 247 240 216 210 262 263 8 190 177 205 200 196 181 178 183
343 339 334 334 332 314 330 32 339 324 258 218 215 228 214 212 231 195 195 209 212 221 218 230 211 236 258 195 243 244 252 298 322 300 257 316 80 268 278 194 205 199 196 184 182
340 337 335 333 292 334 248 336 330 315 267 166 196 198 188 225 231 242 193 213 232 226 227 234 238 236 213 234 234 258 232 204 266 280 266 214 247 165 264 200 201 197 191 193 186
335 333 329 331 307 283 1 321 321 256 261 148 128 116 167 205 117 193 207 220 225 219 237 234 227 240 235 230 237 254 146 287 287 284 282 294 318 181 195 182 187 204 202 194 173
331 329 320 290 241 272 305 305 268 231 247 142 144 191 190 212 220 164 198 231 231 239 234 250 231 237 222 239 242 251 260 262 258 260 266 57 292 138 135 140 156 182 204 195 169
329 318 294 277 347 310 303 261 228 244 93 162 192 188 212 181 215 182 197 200 212 218 219 219 238 236 247 234 239 236 235 245 240 237 225 356 315 119 143 114 130 186 178 188 177
328 306 280 235 271 287 274 236 247 195 201 65 261 235 235 215 212 195 202 208 217 213 221 217 217 210 214 237 236 213 237 243 251 255 51 43 264 118 106 109 126 145 165 178 173
335 225 229 197 234 241 244 228 229 274 20 277 265 240 201 219 250 196 215 213 213 227 228 227 225 200 211 217 236 235 218 245 258 268 213 172 200 273 140 126 137 148 159 159 161
327 255 144 254 222 221 236 253 292 342 313 257 271 240 231 190 203 207 205 221 223 213 238 256 271 203 190 229 229 248 261 229 247 262 272 262 214 306 175 139 147 147 149 148 155
257 233 77 181 190 225 235 238 243 174 264 284 276 276 279 299 219 217 234 216 229 192 227 246 238 242 185 206 230 218 239 249 269 235 260 264 216 98 56 281 159 154 151 155 155
286 241 130 185 217 225 242 244 21 279 191 262 276 285 287 325 265 264 230 216 193 228 212 233 248 226 206 231 218 249 218 234 244 252 259 284 177 215 186 208 155 148 149 151 156
294 22 165 230 245 224 240 287 269 263 234 244 243 242 273 271 271 270 236 91 127 251 241 218 231 252 236 205 222 230 254 221 242 249 254 256 262 111 106 126 150 143 151 153 153
281 209 146 211 281 285 299 253 234 205 277 288 275 273 256 255 237 277 241 202 233 235 344 291 243 230 245 226 213 208 234 253 263 258 243 247 196 162 172 153 154 152 151 157 157
286 33 359 203 218 263 303 297 265 243 199 253 250 245 253 245 247 211 245 245 195 174 239 237 250 246 256 268 253 240 214 227 243 250 259 263 256 248 187 176 167 157 155 164 157
336 339 343 283 273 261 216 261 254 275 261 272 220 284 222 258 275 326 268 244 226 179 214 221 246 249 249 251 254 250 253 244 223 241 249 262 272 282 96 124 164 164 164 172 165
358 315 280 289 272 248 358 307 262 296 294 283 309 312 272 267 321 317 319 307 306 289 280 224 228 247 244 245 244 243 239 239 250 246 229 246 250 265 238 159 175 167 169 174 164